Wind_Speed
30 31 32 33 33 34 33 28 23 25 29 31 33 35 38 38 37 36 35 34 33 31 32 33 32 31 32 32 31 30 30 30 28 27 26 27 28 29 30 30 29 29 29 27 25 23 22 21 21 23 25 25 25 27 28 29 30 30 29 28 28 28 27 21 13 9 11 15 18 19 23 25 25 29 34 34 35 36 36 38 39 40 41 39 36
32 36 40 40 39 36 29 23 24 29 32 34 35 36 36 35 34 33 32 32 33 33 33 32 30 31 30 29 28 27 26 25 24 24 25 25 25 25 27 28 29 29 28 27 26 24 22 21 21 22 23 24 23 24 26 27 28 29 29 29 28 29 30 27 20 13 10 14 18 18 20 24 26 28 31 33 33 33 33 35 38 40 41 40 38
38 41 42 40 34 27 22 24 29 33 33 33 31 29 28 29 30 28 28 32 32 29 25 23 22 21 21 20 20 20 19 19 20 22 23 25 24 24 25 26 28 29 29 28 27 25 23 21 21 21 21 22 23 23 24 25 26 27 28 29 28 28 30 31 25 17 12 14 19 21 21 24 27 28 30 32 31 29 30 33 36 39 40 40 39
40 36 32 29 25 22 25 29 29 29 28 27 25 25 28 30 28 25 27 30 28 23 20 19 19 17 15 15 16 17 18 18 18 20 22 22 23 23 24 25 26 28 29 29 27 25 24 23 23 21 19 20 22 23 24 24 25 26 27 28 28 27 27 30 29 23 16 13 17 23 25 26 28 29 29 29 29 28 29 31 33 36 38 38 37
31 26 24 24 25 27 29 26 24 25 27 27 27 27 29 30 28 26 28 29 24 21 20 20 19 19 18 18 18 18 19 19 18 19 20 21 23 23 23 24 25 26 28 29 28 27 26 25 25 22 20 20 20 21 22 23 24 25 25 26 26 26 25 27 28 26 20 15 15 20 23 24 25 26 27 28 27 27 28 29 32 34 35 35 35
24 25 26 28 29 28 25 20 22 26 29 31 31 29 29 28 27 27 27 25 20 18 18 18 19 21 23 23 22 20 20 20 20 19 18 20 21 23 23 24 24 25 27 29 29 28 27 26 26 24 22 22 21 20 20 21 22 23 24 24 25 24 24 24 26 25 23 19 16 18 21 23 23 23 26 28 28 27 27 27 29 31 32 33 33
27 28 29 30 28 24 22 22 25 28 29 30 31 31 31 28 26 24 22 20 20 19 19 20 21 23 25 26 25 23 21 21 22 21 19 18 18 20 21 22 24 25 26 28 30 30 29 28 26 26 25 23 22 21 20 20 21 23 24 24 23 22 22 23 23 23 22 19 17 19 21 23 23 22 24 27 27 27 27 26 26 28 30 31 31
29 29 29 28 25 23 24 26 28 28 28 28 28 30 29 24 21 21 21 22 22 21 22 23 25 26 26 27 28 26 23 22 23 23 21 18 17 18 18 18 20 22 24 26 29 30 31 29 27 26 27 25 22 21 20 20 20 21 23 24 23 22 21 21 21 20 20 18 17 19 20 20 21 20 20 23 24 25 28 28 26 26 27 28 29
28 28 27 26 24 25 26 26 26 26 26 24 24 25 22 19 20 23 25 27 26 25 25 25 25 26 27 27 27 27 25 23 24 23 22 20 19 19 19 18 17 19 22 24 27 30 32 31 29 27 27 26 23 20 19 19 19 20 22 23 23 23 21 21 20 19 18 16 15 17 17 18 21 21 20 24 28 26 25 26 24 24 25 25 26
26 26 26 25 26 25 25 24 24 25 24 23 23 23 20 19 23 27 28 28 27 26 26 24 24 25 26 27 27 26 25 24 25 25 24 22 21 21 21 20 19 19 21 23 26 29 32 33 31 29 28 27 25 22 20 20 20 20 20 21 23 24 22 20 20 20 18 15 14 16 15 14 21 25 25 28 30 25 24 26 24 22 21 19 20
26 26 26 26 26 25 23 23 24 24 24 24 24 24 22 23 27 30 30 29 27 25 24 24 24 24 25 26 27 26 26 25 25 26 25 24 24 24 24 24 22 21 21 23 26 28 31 33 32 29 29 28 27 24 21 20 21 20 19 19 21 24 25 23 21 21 20 17 16 18 17 16 22 28 27 26 27 26 27 28 24 21 20 16 13
25 25 26 26 25 24 24 24 24 23 23 24 24 24 23 25 28 30 29 28 26 25 24 25 25 25 25 25 25 25 26 25 25 26 27 26 25 25 25 25 24 23 23 23 25 27 30 32 32 30 29 29 28 26 22 20 21 21 20 20 19 21 25 26 25 24 22 20 17 19 20 21 23 27 28 27 27 27 26 26 26 25 23 20 16
25 25 25 25 25 25 24 24 24 23 23 23 23 24 24 26 27 27 27 25 24 24 25 25 25 25 24 24 24 25 26 25 25 25 26 26 25 26 27 27 25 25 25 24 25 27 29 31 30 30 30 29 29 27 24 22 22 22 22 22 22 22 23 26 27 27 26 24 21 21 24 24 24 28 31 30 28 27 25 25 27 26 24 23 23
25 25 25 25 25 25 24 24 24 23 24 24 24 24 24 25 25 25 24 23 23 24 24 24 24 24 24 24 24 24 24 24 23 23 25 27 27 28 28 27 27 26 26 26 26 27 29 29 28 29 29 29 29 28 25 24 23 22 22 24 26 26 26 26 27 28 29 28 27 27 27 26 26 29 32 32 32 32 30 29 29 28 26 22 20
25 25 25 25 25 25 24 25 24 24 24 24 24 25 24 24 24 24 23 22 23 24 24 24 25 25 25 24 23 23 24 23 22 23 26 27 27 28 28 27 26 26 27 27 27 28 28 27 27 27 28 29 28 27 26 26 24 23 24 25 26 27 28 29 29 30 30 31 31 31 29 27 27 29 30 33 35 35 34 33 31 29 25 19 15
25 25 26 26 26 25 25 26 25 25 25 25 25 24 23 24 24 24 23 23 23 23 24 24 24 25 25 24 23 24 24 23 22 22 21 18 18 21 24 23 22 22 24 25 26 27 27 27 27 26 27 27 27 27 27 26 26 25 26 27 27 26 27 29 30 31 32 32 33 32 29 27 26 27 29 31 33 32 29 27 26 25 21 15 13
26 26 26 26 26 26 26 26 25 25 26 25 24 24 24 24 24 23 23 24 23 23 25 26 27 26 26 25 23 23 23 22 21 20 18 15 13 13 15 15 16 18 20 22 23 25 26 27 27 26 26 26 27 27 27 26 26 27 27 28 28 28 28 28 28 30 32 33 32 31 30 28 26 25 27 29 31 33 29 24 24 26 21 13 9
26 27 27 27 27 27 26 26 25 26 25 24 23 24 24 24 25 24 23 23 24 26 27 28 29 28 26 25 23 22 22 23 22 20 19 17 15 14 14 14 15 17 19 20 22 24 25 26 26 27 28 28 27 28 28 28 28 29 28 27 27 27 28 27 26 26 27 29 30 29 29 30 28 26 25 27 31 34 33 29 28 28 23 15 11
28 28 28 28 28 27 27 27 26 25 24 24 25 26 26 26 28 27 24 23 25 28 28 27 27 27 25 22 19 18 20 22 21 19 18 17 14 13 12 13 15 17 19 20 21 23 24 25 26 27 28 28 28 29 30 31 30 30 29 26 24 25 27 25 23 23 24 25 28 28 27 28 28 26 25 27 30 34 35 33 32 31 25 20 17
29 29 29 29 29 28 27 26 25 25 26 27 29 29 28 28 28 27 26 25 26 26 24 23 24 25 22 18 16 16 18 20 18 16 14 13 11 9 8 10 12 15 17 19 20 22 24 26 26 27 28 29 29 30 31 31 31 30 28 25 24 25 26 24 23 23 23 24 25 24 24 24 25 25 25 27 29 32 33 32 32 33 29 23 23
29 29 30 30 29 28 27 27 27 27 27 27 28 30 29 27 26 26 25 24 22 21 21 20 20 21 20 17 17 19 20 20 18 16 14 13 11 9 9 10 11 13 15 16 18 20 22 25 27 28 28 29 31 32 31 30 31 31 30 29 29 27 25 24 25 24 24 24 23 22 22 23 23 24 25 27 29 30 31 30 30 32 31 27 26
30 30 31 29 28 29 29 29 28 27 27 26 27 29 29 26 23 24 23 21 20 21 21 19 18 19 19 19 19 20 21 21 18 15 13 13 12 11 11 12 12 13 14 15 17 18 20 23 26 28 29 30 32 33 31 29 29 31 32 33 33 31 27 25 25 25 24 24 23 22 22 23 24 24 26 28 29 30 31 29 28 29 29 29 28
31 31 30 29 29 30 29 29 29 27 26 26 25 26 27 24 23 22 21 20 20 21 20 18 18 19 20 20 20 19 18 19 19 17 16 16 14 13 14 14 14 15 16 16 16 17 18 20 23 26 29 31 32 32 32 30 29 31 31 30 31 32 29 25 24 25 24 24 24 23 23 25 26 26 27 28 29 29 29 27 27 27 26 24 24
32 31 31 30 31 30 29 29 29 27 27 26 25 24 24 23 22 21 20 19 18 18 17 17 17 17 18 19 20 18 17 18 19 18 18 16 15 15 15 15 15 16 18 18 18 19 19 20 22 24 27 28 28 29 29 29 30 31 29 27 26 27 27 25 25 25 24 23 23 22 23 25 27 27 28 28 28 27 27 25 24 24 22 20 19
32 32 31 31 31 30 30 30 29 27 27 26 24 24 23 22 21 20 19 18 17 16 16 17 16 16 17 18 19 19 19 20 18 15 13 12 13 13 14 14 14 15 16 18 20 21 21 20 19 20 21 22 22 22 23 24 27 28 26 24 24 25 27 26 25 24 23 21 21 21 21 23 26 28 29 29 28 27 26 25 23 21 19 18 16
32 32 32 31 30 30 30 29 29 28 27 26 24 23 22 22 22 21 19 18 16 16 17 18 18 18 17 18 18 19 20 20 17 14 12 11 10 11 12 13 13 14 15 15 16 17 18 17 15 16 16 16 16 17 18 18 19 20 20 21 24 27 27 26 26 24 21 19 20 22 23 24 27 29 30 29 28 27 26 25 22 20 17 15 13
32 32 31 31 30 29 29 28 28 28 27 26 25 24 24 23 22 20 20 19 18 19 20 20 19 18 18 18 17 17 18 17 15 14 13 12 11 12 10 8 9 10 11 10 8 9 10 10 10 10 10 11 11 12 12 12 13 15 18 22 26 28 27 27 27 25 23 23 24 25 26 27 29 30 30 29 27 25 24 23 21 18 15 14 13
31 31 31 30 29 29 28 27 27 27 27 26 25 24 25 24 22 21 20 19 19 21 22 22 21 19 19 18 15 12 13 14 14 13 13 12 12 10 5 3 6 7 8 8 8 9 9 8 8 9 11 12 13 12 12 13 15 19 22 24 25 25 24 25 25 24 26 28 29 28 28 28 29 29 28 27 25 23 20 19 18 16 16 15 15
31 30 29 29 28 28 28 27 26 25 25 25 25 25 24 22 21 23 23 20 19 21 22 22 21 20 20 18 13 10 11 13 13 11 10 10 8 4 1 5 6 7 8 10 11 12 11 12 12 14 15 17 17 16 17 18 20 22 25 25 25 24 24 25 26 26 28 31 31 30 29 29 28 28 27 25 22 20 18 16 16 17 17 17 16
30 28 28 28 28 28 27 27 27 25 23 24 25 27 27 23 19 18 21 22 21 20 20 20 21 22 23 18 12 8 9 10 10 9 8 7 5 4 5 5 7 9 9 11 13 14 14 14 13 14 15 17 17 17 19 20 21 21 22 24 25 25 25 26 27 28 29 31 31 31 31 30 28 27 26 23 21 19 17 16 17 19 19 18 17
27 27 28 28 28 28 27 27 28 26 24 24 23 24 27 29 26 21 18 19 20 20 19 20 22 24 25 19 13 10 10 9 9 8 6 6 7 8 7 8 9 9 9 12 14 15 14 14 13 14 16 16 15 16 19 20 21 21 21 21 22 24 25 26 27 28 29 29 30 31 31 31 29 26 25 23 22 20 18 17 18 19 19 19 19
28 27 28 28 28 28 27 27 27 25 25 25 23 21 21 24 27 28 25 22 21 20 21 22 23 24 25 22 15 11 11 10 8 7 7 8 9 10 10 10 10 8 9 13 15 14 13 14 13 14 16 16 15 16 18 20 21 22 22 21 20 21 24 25 26 29 30 29 29 28 28 29 28 26 24 24 23 21 20 19 19 19 18 18 18
29 28 27 27 28 27 27 27 26 25 24 24 24 23 21 18 19 23 26 26 25 24 23 24 24 23 25 24 17 11 10 10 9 11 12 12 11 12 12 12 11 8 10 14 17 14 14 15 14 14 15 16 16 17 18 19 20 21 21 22 21 20 22 24 26 28 29 29 29 28 27 27 27 25 24 24 24 23 22 20 19 18 18 18 18
31 28 27 27 27 27 27 26 26 25 25 24 23 23 23 21 18 18 19 21 22 23 24 26 26 24 24 25 19 13 13 14 15 16 15 13 10 9 10 12 12 10 11 16 18 15 14 15 15 14 16 16 17 18 19 19 20 21 21 22 22 22 22 24 25 26 26 27 27 27 26 26 26 26 25 24 23 23 22 21 21 20 19 18 17
31 29 28 28 27 27 27 27 26 25 24 25 24 23 22 22 21 19 17 16 17 18 21 24 26 23 21 23 22 19 19 19 18 16 14 10 7 5 7 12 15 14 14 15 16 15 15 16 16 16 16 17 17 18 20 20 21 21 22 22 23 23 23 23 24 25 26 26 26 26 26 26 26 26 26 25 24 23 23 23 22 20 18 17 16
31 29 29 30 30 29 28 27 26 25 25 24 24 23 21 21 20 19 19 17 16 16 18 21 24 24 21 20 20 20 20 19 17 16 14 10 7 7 10 13 15 15 14 14 15 15 16 17 17 18 17 17 17 18 20 20 20 20 21 23 23 24 24 23 24 24 25 25 25 25 25 26 26 26 26 25 24 24 23 22 20 18 16 16 15
30 29 30 31 30 29 28 27 26 26 26 24 23 22 20 19 18 18 17 17 16 16 18 19 21 23 23 20 17 16 16 16 16 17 16 14 12 13 14 14 14 14 14 13 14 16 16 16 18 19 18 18 19 19 19 20 20 20 20 22 23 23 23 22 23 23 23 24 24 24 25 26 26 26 25 23 21 21 21 20 18 16 14 14 14
31 30 30 31 30 28 27 27 27 26 25 24 24 22 19 18 18 17 17 17 16 16 17 18 18 20 21 19 15 13 14 16 18 18 19 18 16 16 15 13 13 13 13 12 13 16 16 16 17 18 18 19 19 19 19 19 19 20 20 21 21 21 21 21 21 21 22 23 24 25 25 25 24 23 22 21 20 20 19 19 18 17 15 15 14
31 31 31 31 29 28 27 26 25 25 25 24 24 22 19 18 18 17 16 16 17 17 16 16 18 19 20 19 15 13 15 17 18 19 19 18 17 15 14 13 12 12 11 11 12 14 16 16 16 16 17 18 18 19 19 19 19 20 20 20 20 20 20 20 20 21 21 23 24 24 23 23 23 21 20 19 20 20 20 18 17 16 15 14 13
31 30 30 30 28 28 27 25 24 25 24 24 23 22 19 18 18 18 16 16 16 16 15 15 16 19 20 19 15 13 15 16 15 16 17 17 16 14 13 12 11 10 10 10 11 12 14 15 15 15 16 17 18 18 18 17 17 18 18 19 19 19 19 19 20 21 22 22 22 22 22 22 21 20 18 17 17 17 17 16 15 14 13 11 11
30 29 28 28 27 26 25 25 25 25 24 24 23 21 19 19 19 18 17 16 16 15 15 15 16 17 19 19 16 13 14 15 14 15 16 16 15 14 12 10 9 9 9 9 10 11 12 13 13 14 15 16 17 17 16 15 14 15 16 17 18 19 19 20 20 20 21 21 21 21 21 20 20 19 17 16 15 15 14 14 13 13 12 11 10
29 28 27 26 26 25 24 24 25 25 24 24 24 21 20 19 19 18 17 17 16 15 15 15 16 17 18 18 15 14 15 16 16 16 16 16 15 14 12 9 8 7 7 8 8 9 11 12 12 12 14 14 15 16 15 13 12 13 15 17 18 20 20 20 19 19 19 20 20 20 20 20 19 18 17 16 15 15 14 13 13 13 12 11 11
28 27 26 25 25 24 23 24 24 24 24 24 23 21 20 20 19 18 18 17 16 16 15 15 16 17 17 16 15 15 16 17 16 16 16 16 16 14 12 10 8 7 6 6 6 7 8 10 10 11 12 12 13 14 13 11 10 12 14 16 19 20 20 20 20 20 20 20 20 20 20 20 19 18 16 15 14 14 13 13 14 13 13 13 12
28 27 26 25 24 24 23 24 24 23 23 23 22 20 21 21 20 19 19 18 16 16 16 16 15 16 17 17 17 17 17 17 16 16 15 15 15 14 12 10 9 8 7 6 6 6 6 7 8 9 9 10 11 11 10 9 8 10 13 16 19 20 21 20 21 20 20 21 21 20 19 18 17 16 15 14 13 14 14 15 15 14 14 14 13
28 27 25 24 24 23 23 24 24 23 23 23 22 21 21 22 21 19 19 18 17 17 17 16 16 16 17 17 18 18 17 16 16 15 15 15 14 13 12 11 10 9 9 8 7 6 6 6 7 7 8 9 9 9 8 7 7 8 10 14 17 19 19 18 18 18 18 18 18 18 17 16 15 15 14 14 15 15 16 15 15 15 15 15 14
28 27 25 24 23 23 23 23 24 23 23 23 22 21 21 22 21 20 20 18 17 17 18 18 17 16 16 16 17 16 16 15 15 14 14 14 13 12 12 11 10 10 10 9 8 7 7 7 7 8 9 10 9 8 7 7 6 7 9 11 13 14 14 14 14 14 14 14 14 14 14 14 14 14 14 15 15 15 15 15 15 15 15 15 14
29 27 25 24 23 22 22 23 23 22 22 22 22 21 20 20 20 20 20 19 18 18 18 18 18 17 16 16 15 15 14 14 14 14 13 13 12 11 11 10 10 10 10 10 9 8 8 8 7 7 8 8 8 7 7 7 7 7 8 9 9 10 10 10 10 10 10 10 10 11 11 13 14 14 14 15 15 15 16 15 15 15 14 14 14
30 29 26 24 23 23 23 23 23 22 21 22 22 21 19 20 20 20 20 20 19 19 19 19 18 17 17 16 16 15 14 14 13 13 12 12 11 10 10 10 10 10 9 10 10 9 9 9 8 8 8 7 7 8 9 9 10 10 11 10 10 9 9 9 10 9 10 10 10 9 10 11 12 13 14 14 14 15 15 14 14 14 13 13 14
31 30 27 25 24 24 23 23 23 23 22 22 22 21 20 20 21 20 19 19 19 19 20 20 20 18 17 17 17 17 16 15 14 13 12 11 10 9 8 8 8 8 8 10 10 10 10 10 9 9 9 9 9 10 11 12 12 12 12 12 11 11 11 10 10 10 10 10 10 9 9 10 10 11 12 12 12 12 12 12 12 13 13 13 15
32 30 28 27 26 25 24 23 24 25 24 23 23 22 21 21 21 21 20 20 20 20 20 20 20 19 19 18 19 18 18 17 15 14 12 10 9 8 7 7 7 8 8 9 10 10 10 10 10 10 10 11 11 12 12 12 12 12 11 11 11 11 11 11 10 9 9 9 9 8 8 8 9 9 9 9 9 10 11 11 12 13 14 15 16
33 31 30 29 28 28 27 25 25 26 26 24 24 24 23 22 21 21 21 20 21 21 21 20 20 20 19 19 19 19 18 17 15 13 12 10 9 8 8 8 8 9 9 10 10 10 10 11 11 11 11 12 12 12 12 11 11 10 10 10 10 10 10 9 8 8 8 8 7 7 6 6 7 7 7 8 9 10 11 11 12 13 15 16 17
Wind_Direction
320 320 319 315 310 308 306 305 309 314 316 316 314 313 312 309 306 306 307 303 297 291 289 287 281 274 272 272 271 271 270 269 269 265 260 258 256 255 255 251 247 246 248 249 250 248 243 242 244 244 242 235 228 226 222 219 216 213 211 210 210 211 210 210 224 233 214 216 224 226 226 228 228 228 225 225 225 224 225 226 227 229 229 226 220
322 318 313 308 304 301 301 308 316 317 315 312 310 309 309 307 306 306 305 300 296 290 289 290 282 271 268 270 272 270 267 267 270 267 260 256 254 254 254 251 247 246 245 246 247 247 244 242 243 245 242 237 229 224 220 218 215 212 211 209 209 210 210 210 219 228 216 210 213 216 219 221 226 229 226 225 225 222 221 223 225 227 228 227 222
316 311 306 304 305 305 312 319 319 317 315 311 309 308 311 312 310 308 306 304 300 296 298 306 302 285 277 279 280 277 274 274 277 275 266 256 253 253 252 250 247 246 244 244 246 245 241 241 243 243 239 236 233 227 221 218 214 212 212 211 210 209 209 210 215 220 217 211 209 209 212 216 222 227 228 228 226 223 222 223 223 225 226 226 225
311 308 307 312 318 321 322 322 321 321 319 317 316 315 317 317 313 310 311 308 306 309 316 323 325 320 314 308 301 294 291 289 287 282 272 262 256 255 253 249 247 247 245 244 246 244 240 239 243 243 235 232 233 230 225 221 216 213 214 213 212 211 209 210 214 217 216 208 205 209 211 213 219 223 224 225 225 225 225 224 224 224 224 225 226
315 320 324 327 327 323 322 324 327 325 321 321 319 317 316 315 310 306 307 306 306 315 321 320 321 322 320 317 311 306 302 300 297 290 280 271 263 258 256 251 247 248 247 245 245 244 241 241 243 243 235 231 232 230 225 222 219 217 216 214 213 212 210 210 214 216 216 207 199 203 207 209 214 217 217 216 217 220 223 224 225 225 225 226 226
328 331 329 326 322 319 322 328 328 321 317 315 312 311 313 310 303 299 301 306 313 320 321 319 317 315 314 313 310 306 302 301 300 297 290 281 271 263 258 254 251 249 247 246 244 243 243 243 244 242 237 234 233 231 228 225 222 221 220 218 216 213 209 210 211 212 214 211 198 193 198 204 206 209 213 213 211 211 214 220 225 226 225 224 224
328 325 321 317 314 316 322 326 321 314 309 307 306 307 307 303 297 298 305 316 321 319 316 313 311 310 309 308 306 302 298 294 293 293 293 289 280 270 263 257 254 250 247 245 244 243 242 242 243 242 238 237 236 234 232 229 227 226 227 224 220 214 208 208 208 207 209 207 196 191 195 200 202 205 209 211 211 211 210 209 216 221 222 220 220
322 321 318 315 315 319 323 320 315 309 304 301 301 303 302 299 303 311 317 320 316 311 309 307 306 306 305 303 301 298 293 287 285 286 287 286 282 276 268 262 257 252 249 247 244 243 241 239 241 243 240 237 237 236 235 233 230 229 230 229 224 217 212 210 207 205 205 200 191 189 190 192 198 201 201 199 204 212 211 207 209 214 216 216 218
322 322 321 321 322 322 319 315 312 311 307 304 304 305 306 311 319 321 320 317 314 310 307 304 303 303 303 301 299 295 288 279 277 277 278 279 279 275 269 264 261 257 255 251 247 244 241 238 238 242 240 236 233 234 237 239 237 234 231 229 224 220 216 213 209 205 203 199 189 183 183 188 192 191 189 194 202 208 208 206 209 212 211 212 217
323 324 323 323 322 319 317 315 316 316 315 314 313 313 316 321 322 320 318 315 313 309 306 304 302 300 300 299 296 292 284 275 271 270 270 270 272 272 267 262 260 260 258 254 250 245 241 237 237 237 237 234 230 229 233 237 240 242 239 233 227 221 216 213 212 208 204 200 190 181 181 191 194 193 195 200 203 203 201 202 206 205 200 205 217
325 324 323 322 320 319 318 318 318 317 317 317 315 314 316 317 317 317 316 313 310 307 304 302 299 296 294 292 290 286 280 273 269 266 266 265 265 265 261 256 255 256 258 254 250 246 241 236 234 233 232 230 228 227 230 234 237 240 242 239 233 227 220 215 213 211 208 206 197 187 188 196 198 199 200 200 199 200 200 200 200 194 190 198 213
326 325 324 323 323 322 322 320 318 317 315 313 312 313 313 313 313 313 312 310 308 304 302 299 296 295 291 287 284 280 276 272 268 265 264 264 262 260 257 253 251 252 254 253 249 246 240 234 230 229 227 225 224 224 229 237 238 237 238 238 237 233 227 222 219 215 212 212 206 198 198 200 200 200 201 199 197 199 200 199 198 196 196 201 206
327 326 326 326 325 324 322 319 317 315 313 312 312 312 311 309 309 308 307 306 302 299 298 297 294 292 288 285 282 278 275 271 267 263 262 261 258 257 255 251 250 250 250 250 247 242 236 230 227 225 224 222 221 222 228 235 237 236 237 240 240 240 236 231 228 225 221 219 216 214 211 204 200 202 203 200 196 194 195 198 200 200 201 206 210
328 328 328 326 326 324 321 319 317 315 315 314 312 309 307 306 304 304 303 300 298 297 296 295 292 290 289 287 284 280 276 273 270 267 265 263 259 256 253 248 246 247 247 246 243 237 231 227 223 222 222 220 219 221 225 228 230 230 233 237 240 241 239 236 234 232 230 226 224 226 224 215 211 211 208 203 200 198 198 199 201 202 204 208 211
329 329 327 326 325 323 322 321 319 316 315 313 310 307 305 304 303 301 300 298 297 296 295 294 291 290 290 288 283 282 281 279 276 273 271 268 261 254 249 243 239 240 242 241 238 235 232 230 226 222 220 219 218 220 220 220 223 225 228 233 238 239 237 236 235 234 233 232 231 232 231 227 225 222 216 210 208 207 206 206 204 202 200 198 197
331 329 327 327 326 325 324 321 318 316 314 310 308 307 305 304 303 302 300 299 296 294 292 292 290 289 290 287 283 284 287 285 281 281 281 277 266 254 246 240 235 234 236 236 234 236 236 233 228 223 220 219 219 219 217 216 218 221 224 229 233 233 234 235 236 235 235 236 236 236 235 233 232 229 224 218 212 206 203 201 198 194 188 180 178
331 329 328 328 328 326 323 320 316 314 312 311 309 309 307 305 304 303 302 299 297 296 296 297 297 296 293 290 286 284 287 291 290 288 290 289 282 270 257 245 236 236 239 240 240 240 239 234 228 224 222 222 220 218 215 214 216 217 221 225 227 229 232 235 235 235 235 235 236 238 238 236 234 231 228 221 213 203 192 185 186 185 180 175 175
331 330 329 328 327 324 322 320 315 311 310 311 309 309 308 305 304 304 300 295 295 300 303 303 303 302 298 296 294 287 288 298 301 293 290 290 287 283 271 256 244 240 241 242 243 242 239 234 230 227 225 225 223 220 218 217 216 216 218 220 221 225 229 232 233 234 234 234 234 235 235 234 232 229 223 216 211 204 196 191 189 183 181 187 183
331 330 328 326 324 323 321 318 314 311 311 311 309 310 310 310 311 310 304 300 302 307 309 307 307 309 308 306 308 302 299 309 314 306 299 299 297 291 278 263 251 244 241 240 240 241 239 236 233 230 228 228 226 224 223 221 219 219 220 218 217 224 228 228 229 231 231 231 231 228 224 223 223 219 212 208 209 207 205 202 195 187 188 192 179
329 327 326 325 324 322 320 317 315 315 314 312 312 314 314 314 317 317 314 312 313 314 314 312 312 317 318 319 325 325 319 319 319 313 304 301 301 298 284 267 256 251 248 243 240 239 239 237 235 232 231 231 230 227 225 223 222 223 223 218 219 226 230 229 230 232 229 227 226 219 210 207 207 205 199 198 203 206 205 204 201 197 196 191 181
327 327 326 325 323 322 322 321 320 320 318 316 315 317 318 318 317 317 316 313 312 314 316 317 317 321 326 328 327 329 329 324 317 310 303 296 293 291 283 272 262 256 254 249 243 240 237 236 235 233 232 232 230 228 226 224 224 223 221 220 224 228 229 229 230 228 224 221 217 208 199 194 193 193 190 189 195 199 200 202 205 204 201 194 187
328 328 326 325 324 324 325 326 325 324 323 322 320 320 322 321 317 316 316 314 314 317 319 322 324 326 330 329 323 324 329 326 318 312 308 302 295 290 287 281 271 260 255 251 247 243 239 236 234 232 231 232 231 230 228 225 224 223 221 222 225 226 225 224 222 217 212 209 202 193 188 184 181 182 183 184 187 192 196 198 201 201 201 200 196
329 327 327 327 327 327 328 328 329 327 326 326 322 320 322 323 321 321 321 319 320 321 322 327 327 324 324 322 317 316 321 322 316 310 310 309 302 291 285 280 272 262 254 251 250 249 248 246 240 235 233 232 231 232 231 227 225 225 223 220 221 221 217 211 206 201 197 193 188 181 177 176 174 174 176 178 181 185 189 192 194 195 196 197 198
329 328 329 329 328 329 330 330 330 329 329 328 325 323 324 325 325 326 325 322 319 318 319 322 321 316 314 313 310 306 309 316 316 308 304 304 295 285 281 277 270 262 254 251 250 251 252 253 248 239 234 231 229 230 231 230 229 228 225 221 216 209 200 193 191 189 184 180 177 171 169 171 171 170 171 171 173 178 180 180 182 184 184 184 184
330 330 330 330 330 330 331 331 331 332 332 331 328 325 326 327 326 326 326 323 318 315 315 316 314 311 307 303 302 303 307 313 319 320 316 307 294 286 283 276 267 259 253 249 247 245 246 248 246 238 230 225 225 225 228 231 232 229 225 217 203 189 182 181 180 178 175 172 168 162 160 163 165 167 168 167 167 170 170 166 165 167 169 169 169
331 331 330 330 331 331 331 332 333 334 334 334 331 328 328 328 326 326 326 324 320 316 314 311 309 308 306 300 299 304 310 315 320 330 334 326 315 306 290 271 259 253 251 252 249 241 237 236 234 229 223 218 218 221 225 230 227 220 213 200 183 174 173 174 172 170 168 162 155 152 153 157 161 163 162 162 163 164 164 161 158 159 163 167 165
331 331 331 331 332 332 332 332 333 334 335 336 335 334 334 332 328 325 325 324 321 318 315 311 309 307 304 301 300 307 316 320 326 334 339 338 334 325 303 265 240 233 233 235 229 215 208 209 212 211 206 198 196 200 206 207 199 189 182 175 168 168 171 173 172 169 162 154 149 149 152 156 157 156 156 157 157 158 161 162 160 158 164 170 165
332 331 331 332 332 333 333 333 334 334 334 335 335 334 333 332 327 323 322 318 312 310 310 308 305 303 304 305 308 313 320 326 333 337 338 338 332 324 308 192 178 183 180 168 159 157 159 160 161 161 155 148 145 148 153 160 161 158 155 154 155 158 162 164 163 160 157 156 153 151 151 152 151 151 153 154 153 154 159 165 165 163 165 166 158
333 332 333 333 334 334 334 334 334 334 333 334 335 333 332 330 323 320 325 323 311 305 307 307 309 316 323 324 322 316 320 332 341 342 343 343 337 330 105 126 133 137 140 143 141 136 132 129 128 130 129 125 123 123 127 131 135 138 141 144 146 149 153 157 157 156 157 157 153 149 147 147 146 148 151 152 153 156 161 165 166 165 165 164 160
333 333 334 335 334 335 335 334 335 336 334 333 335 336 338 338 330 321 324 326 324 321 323 328 335 342 344 345 345 338 334 344 352 357 3 11 24 64 89 100 109 115 127 138 131 119 113 109 106 110 115 115 116 118 121 122 123 124 130 138 144 148 152 156 157 156 156 155 152 150 149 148 147 149 152 152 153 155 159 165 168 167 166 162 157
333 333 334 334 335 335 334 334 335 336 336 336 335 335 337 342 345 344 337 331 333 339 346 351 354 354 353 359 13 19 11 9 10 13 32 62 74 80 86 91 97 110 134 134 117 105 104 103 98 102 109 110 113 118 122 123 122 122 124 131 139 147 150 152 154 154 153 152 151 151 152 152 152 154 156 156 155 155 158 163 166 168 169 167 162
333 332 333 334 335 336 335 335 335 335 336 337 338 336 335 337 344 352 358 359 359 2 4 2 360 359 360 6 18 29 23 18 20 41 71 83 78 77 85 89 90 109 136 127 108 98 102 105 102 106 112 112 114 120 124 126 127 129 130 130 133 143 149 152 155 156 154 153 152 152 153 154 155 156 158 158 157 156 158 162 166 168 169 167 165
334 332 333 334 336 336 336 336 336 336 336 336 336 337 337 333 332 339 351 1 9 15 17 13 5 2 3 7 15 27 30 34 59 81 85 85 83 80 79 81 88 112 132 120 106 100 104 107 107 112 116 117 119 122 124 126 128 131 133 133 135 142 149 152 155 156 155 156 156 155 155 156 156 156 158 160 161 161 161 162 164 165 164 161 160
338 335 336 337 337 337 337 337 336 336 337 337 336 335 335 334 331 329 335 347 357 3 10 14 12 8 9 14 26 51 65 65 72 80 80 81 85 85 82 82 86 100 116 115 110 108 109 109 110 114 117 120 123 125 125 127 131 132 133 136 139 143 148 151 153 154 154 155 157 157 158 160 160 158 158 159 161 162 162 162 163 163 163 161 159
341 340 340 341 341 340 339 338 338 337 337 338 337 335 334 334 335 337 337 339 342 344 351 3 9 12 16 25 37 56 70 70 68 67 69 70 69 76 88 85 81 86 97 105 108 111 113 114 115 117 120 122 124 127 128 130 134 137 137 139 141 144 148 151 153 154 156 157 158 159 161 162 163 163 162 163 163 162 162 164 166 166 165 164 164
343 342 342 344 344 342 340 339 339 339 339 339 337 337 338 339 341 344 346 346 346 346 349 356 4 12 22 32 39 47 55 60 60 59 60 64 67 76 84 82 80 85 92 99 107 113 115 118 122 123 125 126 128 131 133 136 139 142 143 144 146 148 151 154 155 156 158 159 159 161 162 164 165 166 164 164 165 165 165 165 167 168 168 168 171
343 342 342 343 343 342 342 342 343 344 344 344 343 343 344 349 352 353 354 354 353 354 356 359 5 11 17 24 36 47 54 61 66 65 65 67 69 75 82 85 88 92 94 102 113 117 116 121 128 129 131 134 136 138 141 142 144 146 147 148 150 152 154 156 158 159 160 160 161 163 165 166 167 168 166 163 162 164 166 166 167 168 171 174 178
345 343 343 344 344 344 343 343 345 348 348 349 350 349 351 356 359 359 359 359 359 359 1 4 8 10 9 12 26 50 64 67 64 59 58 60 63 68 78 85 89 93 96 104 117 120 121 126 131 134 137 140 142 144 146 146 148 150 150 150 150 152 153 156 158 160 162 162 163 165 167 167 167 169 168 166 165 167 170 172 172 172 175 181 187
345 345 345 346 347 347 346 345 347 349 350 351 353 353 356 1 2 0 359 359 0 3 5 6 9 11 10 10 20 43 60 59 52 47 49 54 59 65 74 81 86 93 101 108 117 123 126 130 134 138 141 143 146 148 149 150 151 153 153 151 150 152 155 158 159 162 164 164 164 166 168 168 168 170 172 172 172 173 174 177 180 183 184 190 196
344 344 345 347 348 348 348 349 350 350 351 353 353 354 359 2 0 359 0 1 1 3 7 9 9 10 13 17 23 41 55 54 48 47 51 54 58 63 68 74 83 94 106 115 122 128 131 135 141 145 147 148 151 152 152 153 153 153 155 157 156 157 159 161 162 164 165 166 167 168 170 170 171 173 176 177 179 182 183 183 187 191 194 200 204
345 344 344 347 349 349 350 353 353 352 354 355 354 355 0 2 0 0 2 4 4 2 5 9 11 12 17 23 30 49 63 62 57 57 57 57 60 65 67 70 78 93 110 122 132 138 140 144 150 153 154 156 158 157 155 155 156 157 160 161 160 159 160 162 165 166 167 168 169 170 171 174 175 176 179 182 185 188 190 190 192 196 200 206 210
347 346 346 348 350 351 352 353 352 353 356 357 356 358 1 2 3 5 5 5 6 6 5 9 12 14 20 27 37 54 66 65 62 61 60 60 63 67 72 77 83 94 109 121 134 144 149 152 157 160 161 163 163 162 161 162 164 165 165 165 164 162 162 165 168 170 171 172 173 174 176 178 181 183 184 185 186 188 190 194 198 203 209 213 218
350 349 349 351 353 353 353 353 354 356 357 355 355 359 4 4 6 8 8 6 8 10 11 12 13 16 22 32 44 54 56 55 56 55 55 58 62 65 71 81 90 97 108 117 128 140 148 153 157 161 165 166 166 167 167 168 169 170 170 170 169 168 167 170 173 175 178 179 179 180 182 182 184 187 187 188 190 193 199 204 208 211 216 219 223
354 354 354 355 356 357 357 357 356 355 354 354 356 3 9 8 8 9 11 11 11 13 15 16 17 19 23 29 38 44 43 43 45 46 46 50 56 60 66 78 90 103 113 118 123 132 143 149 152 154 158 160 163 166 168 171 175 177 174 174 174 174 175 177 178 179 182 183 182 182 184 184 186 190 194 198 203 206 208 212 214 214 217 221 226
359 357 357 358 359 359 358 358 357 355 355 356 359 5 10 10 10 11 13 13 13 15 16 19 23 26 27 28 32 34 35 35 36 37 38 41 46 52 61 72 83 96 106 113 118 128 137 143 147 148 149 152 157 164 167 169 175 180 181 181 180 178 178 180 180 180 183 185 185 186 187 190 196 202 205 209 213 214 215 216 217 218 221 226 231
3 1 360 0 0 359 358 358 358 358 359 360 1 4 8 9 11 13 15 14 15 17 19 21 24 26 27 28 29 29 31 34 34 33 34 37 42 49 58 68 77 86 95 101 104 111 121 129 137 144 147 150 153 156 156 153 156 167 179 185 186 183 181 180 180 182 186 190 194 197 200 204 207 211 213 214 215 217 219 220 222 225 229 233 239
6 5 4 3 1 0 360 360 359 359 1 3 3 4 7 8 10 14 17 17 18 19 20 22 24 25 26 28 30 30 32 35 35 34 34 36 42 49 57 67 75 79 84 89 91 94 98 106 115 124 130 135 137 136 136 136 137 143 155 166 175 182 182 179 180 185 190 197 204 209 212 213 211 211 213 215 215 217 220 222 226 231 236 241 249
10 9 7 6 4 3 3 3 3 2 3 4 3 3 6 8 10 14 18 19 20 22 21 21 23 24 25 32 39 41 41 41 40 40 40 41 44 52 62 71 78 82 84 88 89 89 89 91 97 103 109 116 123 127 131 134 134 134 139 145 153 162 169 173 178 184 186 192 200 206 210 214 214 212 214 215 216 219 224 228 233 239 244 250 257
13 12 10 8 7 6 6 7 8 7 6 8 6 5 6 9 11 14 16 17 19 21 22 22 23 22 23 29 37 41 43 43 42 42 43 45 49 57 69 78 85 91 94 95 94 94 94 96 98 102 108 115 122 127 130 132 133 134 138 141 147 155 163 169 175 181 183 188 193 196 201 209 211 212 215 218 220 226 232 237 243 248 252 256 262
15 15 15 13 11 10 9 10 12 12 11 11 10 8 8 10 13 15 15 15 17 19 18 20 22 23 23 28 34 37 39 40 39 39 42 46 52 63 76 87 94 97 98 98 98 99 99 100 102 105 109 113 119 123 126 129 129 131 135 140 147 155 162 167 172 177 180 184 189 192 196 203 206 210 218 223 227 235 243 247 251 255 258 262 266
17 17 17 16 16 16 14 13 13 14 13 13 12 11 12 12 14 15 16 16 16 16 16 18 21 22 23 28 34 36 37 39 40 41 44 48 54 66 79 89 96 98 98 100 102 102 102 103 103 104 106 109 113 116 119 122 124 127 132 138 144 150 154 158 164 169 172 177 184 189 195 204 212 220 229 235 239 247 252 254 257 262 264 267 270
Height
760 758 756 754 751 748 745 743 741 739 737 736 734 732 730 728 725 722 720 718 715 713 711 709 707 706 705 704 704 703 702 701 701 701 702 702 702 703 704 704 705 705 706 707 708 709 709 710 711 712 714 714 715 716 717 719 720 721 723 725 728 730 733 735 736 736 739 741 742 744 747 750 753 754 756 758 758 760 761 764 767 770 772 773 773
758 756 753 750 747 744 742 739 738 736 734 732 730 728 726 724 721 719 717 714 712 710 707 705 703 701 700 700 699 699 698 698 698 698 698 698 699 699 700 701 702 702 702 703 704 705 706 706 707 708 710 711 712 713 714 716 717 718 719 721 723 726 728 731 732 733 736 738 740 742 744 747 749 751 754 756 756 757 759 761 764 767 769 770 770
756 753 749 745 742 740 739 737 735 733 731 729 727 725 723 721 718 716 714 712 709 706 704 702 699 698 697 697 696 696 695 695 695 695 695 695 696 696 697 697 698 699 699 699 700 702 702 703 703 704 707 708 709 710 711 713 714 715 716 717 719 722 724 727 728 729 732 735 737 739 741 743 745 748 751 754 755 757 758 759 762 765 767 768 768
752 749 745 742 740 738 736 733 731 730 728 727 725 723 721 719 717 715 712 710 706 703 702 700 698 697 696 695 694 694 693 692 692 692 692 693 693 693 694 694 695 696 696 696 697 698 699 700 700 702 703 705 705 707 708 710 711 712 714 714 716 718 721 723 725 726 729 731 733 735 738 740 742 745 748 751 754 755 757 758 761 763 765 765 766
749 746 743 740 738 735 733 730 729 728 727 725 722 721 718 716 715 713 710 708 704 702 700 698 697 696 695 694 693 692 691 690 690 689 689 690 690 690 691 691 692 692 693 694 694 695 696 696 697 699 700 701 702 704 705 706 708 709 711 712 713 715 718 720 722 724 726 728 730 733 736 738 740 742 745 748 751 753 755 757 759 761 762 763 764
748 745 742 740 736 734 731 729 728 727 725 723 720 718 716 714 712 710 708 706 703 700 699 697 696 694 693 692 691 690 689 688 687 687 687 687 687 687 688 688 689 689 690 691 691 692 692 693 695 696 697 698 699 701 702 704 705 707 708 709 710 712 715 717 719 721 722 724 727 730 733 735 737 740 742 745 748 750 752 755 757 759 760 760 761
748 745 742 739 736 733 731 729 727 725 723 720 717 715 713 711 709 708 706 704 701 699 697 696 694 692 691 689 688 688 687 686 685 684 684 684 684 684 685 685 686 686 687 688 688 689 689 690 691 693 694 695 696 698 700 701 703 704 705 707 708 710 712 714 716 717 719 721 723 726 729 732 735 737 739 743 746 748 749 751 754 756 757 757 758
747 744 741 737 734 732 730 728 726 723 720 717 714 712 710 708 707 705 703 701 699 697 696 694 692 690 688 686 685 684 684 683 682 682 681 682 682 682 682 682 683 683 684 685 685 686 686 687 688 689 691 692 694 695 697 699 700 701 703 705 706 707 709 711 713 715 716 718 720 722 726 729 732 735 737 741 743 744 745 747 750 753 754 755 756
746 743 739 736 734 732 730 727 724 720 717 715 712 710 708 706 705 703 701 698 696 694 693 691 689 686 684 683 681 681 680 679 679 679 679 679 679 680 680 680 680 681 681 682 683 683 684 684 685 686 688 689 691 693 694 696 698 699 701 703 704 705 707 708 710 712 713 715 716 719 723 725 728 731 734 735 736 738 742 745 748 750 752 753 754
744 741 738 736 733 731 728 725 722 719 716 713 711 709 706 705 702 700 698 695 693 691 689 687 686 683 681 679 678 677 676 675 675 676 676 676 676 677 677 677 677 678 678 679 679 680 680 681 682 683 685 686 688 689 691 694 695 697 698 700 702 703 704 706 708 709 711 712 713 716 719 722 723 725 727 728 731 736 740 743 745 747 750 752 753
743 740 738 735 732 729 726 723 720 718 715 712 710 707 705 703 700 697 695 692 690 688 686 684 682 680 678 677 675 673 671 671 671 672 672 673 673 674 673 674 674 674 675 675 675 676 677 678 679 680 681 683 685 686 688 690 693 695 696 698 699 701 702 703 704 706 707 709 710 713 715 717 719 721 723 726 729 733 735 738 742 745 746 748 748
742 739 736 733 730 727 724 722 719 716 714 711 708 706 703 701 698 695 692 689 687 685 683 681 679 677 675 673 671 669 668 667 667 667 668 668 669 670 670 669 669 670 671 671 672 673 674 674 675 676 678 680 682 684 685 687 689 692 694 696 697 698 700 700 701 703 704 705 707 709 710 712 715 718 720 723 726 729 732 735 738 740 741 742 743
741 738 735 732 729 726 723 720 718 715 712 709 707 704 702 699 696 693 690 687 685 682 680 678 675 673 672 670 667 665 664 663 663 663 663 664 664 665 665 665 665 665 666 667 668 669 670 671 672 673 674 677 679 681 682 684 686 689 691 693 694 696 697 698 699 700 701 702 704 704 705 708 711 713 716 720 723 727 730 732 734 736 738 739 740
740 737 734 731 728 725 722 719 716 713 710 708 705 702 699 696 693 691 688 685 682 679 676 674 671 669 668 666 663 661 659 659 659 659 659 659 659 660 660 660 660 661 662 663 664 666 667 668 669 670 671 673 675 677 680 682 684 686 688 689 690 692 693 695 697 698 699 700 700 701 702 705 707 709 713 716 719 721 724 727 730 733 735 737 740
739 736 733 730 727 724 720 717 714 711 708 706 703 700 697 694 691 688 686 683 679 676 673 670 668 665 663 662 660 657 655 655 655 655 654 653 653 654 655 655 656 656 657 658 659 661 663 665 666 667 668 670 672 674 676 679 681 683 685 686 687 688 690 691 692 694 696 697 697 698 700 703 704 707 709 712 714 717 720 723 727 730 733 736 739
738 735 732 728 726 723 719 716 713 710 706 703 700 697 694 692 689 686 683 680 677 674 670 668 665 662 660 659 657 654 652 651 651 651 650 649 649 649 650 650 651 652 653 654 656 658 660 661 663 664 665 667 669 671 673 675 677 679 681 683 684 685 686 687 689 691 693 694 695 696 699 701 703 705 707 709 712 716 719 723 727 729 732 736 738
737 734 731 727 724 721 718 715 711 708 704 701 698 695 692 689 686 683 680 677 674 671 668 665 662 660 657 656 655 652 649 648 648 647 647 646 646 646 647 647 648 649 650 651 653 654 656 658 659 661 662 664 666 668 671 672 674 676 678 679 681 682 683 684 687 688 690 691 693 695 698 700 701 702 704 707 710 713 717 721 724 727 730 734 737
737 733 730 727 723 720 717 714 710 706 702 699 696 694 691 687 684 681 679 675 671 668 665 662 659 657 655 652 651 650 647 646 645 645 645 644 644 644 645 645 646 647 648 649 650 651 652 654 656 657 658 660 663 665 667 669 670 672 674 676 678 679 680 682 684 685 687 689 691 693 695 697 699 700 703 705 707 709 712 716 719 723 727 730 732
736 732 729 726 722 719 715 712 708 705 701 698 695 692 689 686 682 679 676 673 670 666 663 660 656 654 652 650 649 648 646 644 643 643 642 642 642 642 642 643 643 644 645 646 647 648 649 650 651 653 654 656 659 661 663 665 666 668 670 672 674 674 676 679 681 683 685 686 688 690 692 694 696 698 700 703 705 707 709 712 715 719 722 725 729
736 732 728 725 721 718 714 710 707 704 700 696 693 690 687 684 680 677 674 671 668 664 661 659 656 653 651 649 648 648 646 644 642 642 641 641 640 641 641 641 641 641 642 643 643 644 645 646 647 649 650 652 654 656 658 660 662 664 666 668 669 670 673 676 678 680 682 684 685 687 689 691 694 696 699 701 703 705 708 710 712 715 718 722 725
735 731 728 724 720 716 713 709 706 702 699 695 691 688 685 682 679 676 673 670 667 664 662 659 656 653 651 649 648 646 645 643 642 641 640 640 640 640 640 640 640 640 640 640 640 640 641 642 643 644 646 648 650 652 654 656 658 660 661 663 664 667 671 673 675 678 680 681 683 685 687 689 691 694 696 699 701 704 707 709 711 713 716 719 722
734 730 726 722 718 715 711 708 704 700 697 694 690 686 683 681 678 675 672 670 667 664 661 658 656 653 650 649 647 645 643 641 640 639 638 638 638 638 638 638 638 638 638 638 638 638 638 639 639 640 642 644 646 648 650 652 654 656 657 658 661 665 668 670 672 675 677 678 681 683 685 687 689 692 694 697 699 702 705 707 710 713 715 717 720
733 730 725 721 717 714 710 706 702 699 696 693 689 686 682 680 677 674 672 669 666 663 660 658 656 653 650 648 646 643 642 640 638 637 636 635 635 635 635 635 635 636 636 635 635 636 636 636 637 638 639 641 642 644 646 648 650 651 653 656 658 661 664 666 669 672 674 676 678 680 682 684 686 689 692 694 697 700 703 706 709 711 714 717 719
733 728 724 720 716 712 708 705 701 698 694 691 688 685 682 679 676 674 671 669 666 663 660 658 656 653 650 647 644 642 641 639 637 636 635 634 634 634 633 633 633 632 632 632 633 633 633 634 634 635 636 637 639 641 643 645 647 648 650 653 655 658 660 663 665 669 671 674 676 678 680 682 684 687 690 693 696 699 702 706 708 711 714 716 719
732 727 723 719 715 711 707 704 700 697 693 690 687 684 680 678 675 672 670 667 665 662 660 657 655 652 649 645 642 640 638 637 635 634 633 632 632 632 631 630 630 629 629 629 629 630 630 631 632 633 634 635 637 639 641 642 644 646 648 650 652 654 657 660 663 667 670 672 674 677 679 681 684 686 689 693 696 699 701 705 707 710 713 715 718
731 727 722 718 714 710 706 702 698 695 692 689 686 683 680 677 674 671 669 666 664 661 658 655 653 650 647 643 640 638 636 635 633 632 632 631 630 629 628 627 627 627 627 627 627 627 628 629 630 631 632 633 635 637 638 640 642 644 646 648 650 652 655 658 662 665 669 671 674 676 679 681 684 687 690 693 696 698 701 703 706 709 712 714 717
730 726 721 717 713 710 706 702 698 694 691 687 684 681 679 676 673 670 668 665 662 660 657 654 651 648 644 641 638 636 634 633 632 631 630 630 629 627 626 625 624 625 625 625 625 625 626 628 629 630 631 632 634 635 637 639 640 642 644 646 648 651 654 657 660 664 667 670 673 676 679 682 685 688 691 693 696 699 701 703 706 709 711 713 716
729 725 721 717 713 709 706 702 699 695 691 687 684 681 678 675 672 670 668 666 663 659 656 653 649 646 642 639 636 635 633 632 631 630 629 629 627 626 625 624 624 624 624 625 625 625 626 627 628 629 631 632 633 635 636 638 640 641 644 646 649 652 655 658 661 664 666 669 672 676 679 682 685 688 691 694 697 699 702 704 706 708 711 713 715
729 724 720 716 712 709 705 702 699 695 691 687 684 681 678 675 672 669 666 665 663 660 656 653 649 645 641 638 635 634 633 631 631 630 629 628 627 626 626 625 625 625 625 625 626 626 627 628 629 630 631 631 633 635 637 639 641 642 645 647 650 653 656 658 661 664 666 669 672 675 679 682 685 688 691 694 697 699 702 704 705 708 710 712 714
728 724 720 716 712 709 705 701 698 695 692 688 684 679 676 674 672 669 666 663 661 659 656 652 648 645 641 638 635 634 633 631 631 630 629 628 627 627 627 627 627 627 627 627 627 628 628 629 631 632 632 633 635 637 639 641 643 645 647 649 651 654 656 658 661 664 666 669 672 675 678 681 685 688 691 693 696 699 701 704 705 707 710 712 714
728 723 720 716 712 709 705 701 698 695 691 688 685 680 675 671 668 667 666 663 660 657 654 651 648 645 641 638 636 634 633 632 631 630 630 629 629 629 629 629 629 629 628 628 629 630 631 632 633 634 635 636 638 640 641 643 645 647 649 652 654 655 657 659 662 665 667 670 673 676 678 681 684 688 690 693 696 699 701 704 706 708 709 711 713
728 724 720 716 713 709 706 702 698 695 691 688 685 682 678 673 668 664 662 660 659 656 653 650 648 645 642 639 636 635 634 633 632 631 631 631 631 631 631 631 631 631 630 630 631 633 634 634 636 637 638 639 641 642 643 645 647 649 651 653 656 657 659 661 663 666 668 671 674 676 679 681 684 687 690 693 696 699 701 704 706 707 709 711 713
729 724 720 716 712 709 705 702 698 695 691 688 685 681 679 676 672 667 662 659 657 655 653 651 648 646 643 640 637 636 635 634 633 633 633 634 633 633 633 633 632 633 632 632 633 635 636 637 638 640 640 642 643 645 646 647 649 651 652 654 657 659 661 663 665 667 670 672 675 677 680 682 685 688 691 694 696 698 701 703 705 707 709 711 713
728 724 721 717 713 709 705 702 699 695 692 689 686 682 679 676 674 670 666 662 658 655 653 651 649 647 644 641 639 637 637 636 636 636 636 636 636 635 635 634 634 634 635 635 636 637 639 640 641 642 643 644 646 647 648 650 651 653 654 656 658 661 663 665 667 669 671 673 676 678 680 683 686 688 691 694 697 699 701 703 705 707 709 711 713
727 723 720 717 714 710 706 703 699 696 693 690 687 684 680 677 674 671 668 666 662 659 656 654 651 649 647 644 642 641 640 639 639 639 639 639 638 637 636 636 636 637 638 638 639 640 641 642 643 645 646 647 648 649 651 652 654 655 656 658 660 662 665 667 669 671 672 675 677 679 682 684 687 689 692 694 696 699 701 703 705 707 708 710 712
727 723 720 716 713 710 706 703 700 697 694 691 688 685 682 678 675 673 670 668 666 663 660 657 654 652 650 647 646 645 644 643 642 642 641 641 640 639 638 638 639 640 641 641 642 643 643 644 645 647 648 649 651 652 653 654 656 657 658 660 662 664 666 668 670 672 674 676 678 681 683 686 688 690 692 695 697 698 700 702 704 706 708 711 712
727 724 720 717 714 710 707 703 700 697 695 692 689 686 683 680 677 675 672 670 667 665 663 660 656 653 651 650 649 648 647 646 645 644 643 642 642 641 641 642 642 643 644 645 645 645 646 647 648 649 650 651 652 654 655 656 658 659 661 662 664 666 668 670 672 673 676 678 680 682 685 687 689 691 693 694 697 699 700 702 705 707 709 711 713
728 725 721 718 715 711 708 704 701 698 695 692 689 686 684 681 679 677 674 672 670 667 665 663 660 658 656 654 653 651 650 648 647 646 645 645 644 644 644 645 645 646 647 647 648 648 648 650 650 651 652 653 654 656 657 658 660 661 663 664 666 668 670 672 674 676 677 679 681 684 686 688 690 691 693 694 696 699 701 703 706 708 710 711 713
729 725 722 719 715 712 709 705 702 699 695 693 690 687 685 683 681 679 677 675 672 670 668 666 664 662 660 658 656 654 652 650 650 650 650 649 649 648 648 648 648 649 649 650 650 650 651 652 653 654 654 655 656 658 659 660 662 663 665 666 668 670 672 673 675 677 679 681 683 685 686 688 690 692 694 696 698 700 702 704 706 707 709 710 712
730 726 723 719 716 713 710 707 704 700 697 694 692 689 687 685 683 681 679 677 675 673 671 669 668 666 664 662 660 657 655 654 655 655 654 653 653 652 651 651 652 652 652 652 653 653 654 654 655 656 657 657 659 660 661 662 663 665 666 668 669 671 673 674 676 678 680 682 684 686 687 689 691 693 695 697 699 701 702 704 705 707 708 709 711
732 728 724 721 718 715 711 708 705 702 700 697 694 691 689 687 685 683 681 679 678 676 674 672 671 669 667 665 663 661 659 658 658 658 657 657 656 656 655 655 655 655 655 655 655 655 656 656 657 658 659 659 661 662 663 664 665 666 668 669 670 672 674 676 678 680 681 683 685 687 689 690 692 694 696 698 700 701 703 704 705 706 708 709 710
734 730 726 723 720 716 713 711 708 705 702 699 696 694 692 690 687 685 684 682 680 678 677 675 673 672 670 668 666 664 662 661 661 661 660 660 659 659 658 658 658 657 657 657 657 658 658 658 659 660 661 661 663 664 665 666 667 668 669 670 672 673 675 677 679 681 683 684 686 688 690 692 693 695 697 698 700 701 702 704 705 706 707 708 709
735 731 728 725 722 719 716 713 710 707 704 702 699 697 694 692 690 688 686 684 683 681 679 678 676 674 672 670 669 667 665 664 664 664 663 663 662 662 661 661 660 660 660 660 660 660 660 661 661 662 663 664 665 666 667 668 669 670 671 672 673 675 676 678 680 682 684 685 687 689 691 693 694 696 697 698 700 701 702 703 704 705 706 707 708
736 733 730 727 724 721 718 715 713 710 707 704 702 699 697 694 692 690 688 687 685 684 682 681 679 678 676 674 672 670 669 668 667 667 666 666 665 665 664 663 663 663 662 662 662 663 663 663 664 664 665 666 667 668 669 670 671 672 672 673 675 676 678 679 681 683 684 686 688 690 691 693 694 696 697 698 699 701 702 703 704 705 706 706 707
737 734 731 728 725 723 720 718 715 713 710 707 704 701 699 697 695 693 691 689 688 686 685 683 682 681 679 677 676 674 673 672 671 669 669 668 668 667 667 666 665 665 665 665 665 665 665 666 666 666 667 668 669 670 671 672 672 673 674 675 676 678 679 681 682 684 685 687 689 690 692 693 694 696 697 698 699 700 701 702 703 704 705 705 706
739 736 733 730 728 725 722 720 717 715 712 709 706 704 702 700 697 695 694 692 690 689 687 686 685 684 682 681 680 678 677 676 674 673 671 671 670 669 669 668 668 668 667 667 667 667 668 668 668 669 669 670 671 672 672 673 674 675 676 677 679 680 681 683 684 685 687 688 689 691 692 693 694 695 696 698 699 700 701 702 702 703 704 704 704
741 738 736 733 730 728 725 723 720 717 715 712 709 707 705 703 701 699 697 695 693 692 690 689 688 686 685 684 683 682 680 679 677 676 674 673 672 672 671 671 670 670 669 669 669 669 670 670 670 671 671 672 672 673 674 674 675 676 677 678 680 682 683 684 685 687 688 689 690 692 692 693 694 695 696 697 698 699 700 701 701 701 702 702 702
743 741 738 736 733 730 728 725 722 720 717 715 712 710 708 706 704 702 700 699 697 695 694 692 691 689 688 687 686 684 683 682 680 679 677 676 675 674 674 673 673 672 672 672 672 672 672 672 672 673 673 673 674 675 675 676 677 677 678 680 681 682 684 685 686 687 689 690 691 692 693 693 694 695 696 696 697 698 698 699 699 699 700 700 699
746 744 741 738 736 733 731 728 726 723 720 718 716 713 711 709 707 705 703 702 700 699 697 696 694 692 691 690 688 687 686 684 682 681 680 679 678 677 677 676 676 675 675 675 675 674 675 675 675 675 675 675 676 677 677 678 679 679 680 681 682 683 685 686 687 688 689 690 691 692 693 693 694 695 695 696 696 697 697 697 697 697 698 697 697
750 747 744 741 739 736 733 731 728 726 723 721 719 716 714 712 710 708 707 705 703 702 700 699 697 696 694 693 691 689 688 687 685 684 683 682 681 680 680 679 679 678 678 677 677 677 677 677 677 677 678 678 678 679 679 680 680 681 682 683 684 685 686 687 688 689 689 690 691 692 692 693 693 694 694 695 695 695 695 695 695 695 696 695 695
754 750 747 745 742 739 736 733 731 728 726 724 722 719 718 716 714 712 711 709 707 706 704 702 701 699 697 695 694 692 691 690 688 687 686 685 684 683 683 682 682 681 681 680 680 680 680 680 680 680 680 681 681 681 682 682 683 683 684 685 685 686 687 688 688 689 690 690 691 692 692 692 693 693 693 693 693 694 694 694 694 694 694 693 693